HST
1 20580U 90037B   23273.50113635  .00006155  00000-0  31812-3 0  9990
2 20580  28.4692 286.7965 0002641  84.9220  46.6564 15.14210466637691
ISS (ZARYA)
1 25544U 98067A   23274.21251013  .00057819  00000-0  10254-2 0  9997
2 25544  51.6408 163.3694 0005202  65.8884  76.5711 15.49662113418239
CXO
1 25867U 99040B   23276.36920278  .00000879  00000-0  00000+0 0  9990
2 25867  37.3758 183.0353 9048941 273.7050   0.2188  0.37812691 24748